• In Österreich
  • Länderverzeichnis
  • Für 7 Tage
  • Wassertemperatur
  • Satellitenkarten
  • Wetterkarte
  • News
  • Widgets
  • user-avatar
    Anmelden

    Stündliche Wetter Korçe

    Heute, 22 Mai, Dienstag

    Zeit Temperatur Niederschläge Wind Luftdruck Luftfeuchtigkeit
    00:00 +12°C° 0,1 mm 2 m/S 666 mmHg 89%
    01:00 +12°C° 0,1 mm 2 m/S 666 mmHg 90%
    02:00 +12°C° 0 mm 2 m/S 666 mmHg 90%
    03:00 +11°C° 0 mm 1 m/S 666 mmHg 90%
    04:00 +11°C° 0 mm 1 m/S 666 mmHg 90%
    05:00 +13°C° 0 mm 1 m/S 667 mmHg 85%
    06:00 +14°C° 0 mm 1 m/S 667 mmHg 80%
    07:00 +16°C° 0 mm 1 m/S 668 mmHg 75%
    08:00 +18°C° 0,4 mm 1 m/S 669 mmHg 69%
    09:00 +20°C° 0,4 mm 1 m/S 669 mmHg 64%
    10:00 +21°C° 0,4 mm 1 m/S 670 mmHg 58%
    11:00 +22°C° 1,1 mm 1 m/S 669 mmHg 58%
    12:00 +21°C° 1,1 mm 2 m/S 669 mmHg 57%
    13:00 +21°C° 1,1 mm 2 m/S 669 mmHg 57%
    14:00 +21°C° 1,6 mm 2 m/S 669 mmHg 59%
    15:00 +21°C° 1,6 mm 2 m/S 669 mmHg 61%
    16:00 +21°C° 1,6 mm 1 m/S 669 mmHg 64%
    17:00 +19°C° 0,8 mm 1 m/S 669 mmHg 70%
    18:00 +18°C° 0,8 mm 1 m/S 668 mmHg 75%
    19:00 +14°C° 0,8 mm 0 m/S 668 mmHg 81%
    20:00 +15°C° 0,3 mm 1 m/S 668 mmHg 81%
    21:00 +14°C° 0,3 mm 1 m/S 668 mmHg 82%
    22:00 +14°C° 0,3 mm 1 m/S 669 mmHg 82%
    23:00 +13°C° 0 mm 1 m/S 668 mmHg 82%

    Morgen, 23 Mai, Mittwoch

    Zeit Temperatur Niederschläge Wind Luftdruck Luftfeuchtigkeit
    00:00 +13°C° 0 mm 1 m/S 668 mmHg 82%
    01:00 +13°C° 0 mm 2 m/S 668 mmHg 82%
    02:00 +12°C° 0 mm 1 m/S 668 mmHg 83%
    03:00 +12°C° 0 mm 1 m/S 668 mmHg 83%
    04:00 +12°C° 0 mm 1 m/S 668 mmHg 83%
    05:00 +13°C° 0,2 mm 1 m/S 668 mmHg 82%
    06:00 +14°C° 0,2 mm 1 m/S 669 mmHg 81%
    07:00 +15°C° 0,2 mm 1 m/S 669 mmHg 81%
    08:00 +16°C° 0,9 mm 1 m/S 669 mmHg 78%
    09:00 +18°C° 0,9 mm 1 m/S 670 mmHg 75%
    10:00 +18°C° 0,9 mm 1 m/S 670 mmHg 72%
    11:00 +19°C° 1,1 mm 1 m/S 670 mmHg 69%
    12:00 +19°C° 1,1 mm 2 m/S 670 mmHg 66%
    13:00 +19°C° 1,1 mm 2 m/S 670 mmHg 64%
    14:00 +19°C° 1,5 mm 2 m/S 669 mmHg 65%
    15:00 +20°C° 1,5 mm 1 m/S 669 mmHg 65%
    16:00 +20°C° 1,5 mm 1 m/S 669 mmHg 66%
    17:00 +18°C° 0,7 mm 1 m/S 668 mmHg 71%
    18:00 +16°C° 0,7 mm 1 m/S 668 mmHg 75%
    19:00 +14°C° 0,7 mm 1 m/S 667 mmHg 80%
    20:00 +14°C° 0,3 mm 1 m/S 667 mmHg 81%
    21:00 +13°C° 0,3 mm 1 m/S 668 mmHg 83%
    22:00 +12°C° 0,3 mm 1 m/S 668 mmHg 84%
    23:00 +12°C° 0,1 mm 1 m/S 667 mmHg 84%

    übermorgen, 24 Mai, Donnerstag

    Zeit Temperatur Niederschläge Wind Luftdruck Luftfeuchtigkeit
    00:00 +12°C° 0,1 mm 1 m/S 667 mmHg 84%
    01:00 +11°C° 0,1 mm 1 m/S 667 mmHg 84%
    02:00 +11°C° 0,2 mm 1 m/S 667 mmHg 84%
    03:00 +11°C° 0,2 mm 1 m/S 666 mmHg 84%
    04:00 +11°C° 0,2 mm 1 m/S 666 mmHg 84%
    05:00 +12°C° 0,1 mm 1 m/S 667 mmHg 80%
    06:00 +14°C° 0,1 mm 1 m/S 667 mmHg 75%
    07:00 +16°C° 0,1 mm 1 m/S 668 mmHg 70%
    08:00 +18°C° 0,1 mm 1 m/S 668 mmHg 66%
    09:00 +19°C° 0,1 mm 1 m/S 668 mmHg 62%
    10:00 +19°C° 0,1 mm 2 m/S 668 mmHg 58%
    11:00 +20°C° 0,5 mm 2 m/S 668 mmHg 58%
    12:00 +20°C° 0,5 mm 2 m/S 668 mmHg 58%
    13:00 +20°C° 0,5 mm 2 m/S 668 mmHg 58%
    14:00 +20°C° 0,8 mm 2 m/S 667 mmHg 61%
    15:00 +20°C° 0,8 mm 2 m/S 667 mmHg 64%
    16:00 +19°C° 0,8 mm 2 m/S 667 mmHg 67%
    17:00 +17°C° 0,7 mm 2 m/S 666 mmHg 74%
    18:00 +16°C° 0,7 mm 2 m/S 666 mmHg 80%
    19:00 +14°C° 0,7 mm 2 m/S 666 mmHg 87%
    20:00 +14°C° 0,2 mm 1 m/S 666 mmHg 87%
    21:00 +13°C° 0,2 mm 1 m/S 666 mmHg 88%
    22:00 +13°C° 0,2 mm 1 m/S 666 mmHg 88%
    23:00 +13°C° 0 mm 1 m/S 666 mmHg 88%

    25 Mai, Freitag

    Zeit Temperatur Niederschläge Wind Luftdruck Luftfeuchtigkeit
    00:00 +12°C° 0 mm 1 m/S 666 mmHg 87%
    01:00 +12°C° 0 mm 1 m/S 665 mmHg 87%
    02:00 +12°C° 0 mm 1 m/S 665 mmHg 86%
    03:00 +12°C° 0 mm 2 m/S 665 mmHg 86%
    04:00 +10°C° 0 mm 2 m/S 665 mmHg 86%
    05:00 +13°C° 0 mm 2 m/S 666 mmHg 82%
    06:00 +15°C° 0 mm 2 m/S 667 mmHg 79%
    07:00 +16°C° 0 mm 2 m/S 667 mmHg 75%
    08:00 +18°C° 0 mm 2 m/S 667 mmHg 69%
    09:00 +19°C° 0 mm 2 m/S 668 mmHg 62%
    10:00 +20°C° 0 mm 2 m/S 668 mmHg 56%
    11:00 +21°C° 0,1 mm 2 m/S 668 mmHg 55%
    12:00 +21°C° 0,1 mm 2 m/S 668 mmHg 54%
    13:00 +23°C° 0,1 mm 2 m/S 668 mmHg 54%
    14:00 +21°C° 0,4 mm 2 m/S 668 mmHg 56%
    15:00 +21°C° 0,4 mm 2 m/S 667 mmHg 58%
    16:00 +21°C° 0,4 mm 2 m/S 667 mmHg 60%
    17:00 +19°C° 0,2 mm 2 m/S 667 mmHg 66%
    18:00 +17°C° 0,2 mm 2 m/S 667 mmHg 71%
    19:00 +15°C° 0,2 mm 1 m/S 666 mmHg 77%
    20:00 +15°C° 0 mm 1 m/S 666 mmHg 78%
    21:00 +14°C° 0 mm 1 m/S 667 mmHg 78%
    22:00 +13°C° 0 mm 1 m/S 667 mmHg 79%
    23:00 +13°C° 0 mm 1 m/S 666 mmHg 79%

    26 Mai, Samstag

    Zeit Temperatur Niederschläge Wind Luftdruck Luftfeuchtigkeit
    00:00 +13°C° 0 mm 1 m/S 666 mmHg 78%
    01:00 +12°C° 0 mm 2 m/S 666 mmHg 78%
    02:00 +12°C° 0 mm 2 m/S 666 mmHg 78%
    03:00 +12°C° 0 mm 2 m/S 666 mmHg 79%
    04:00 +12°C° 0 mm 2 m/S 666 mmHg 79%
    05:00 +14°C° 0 mm 2 m/S 667 mmHg 76%
    06:00 +15°C° 0 mm 1 m/S 667 mmHg 72%
    07:00 +18°C° 0 mm 1 m/S 668 mmHg 68%
    08:00 +19°C° 0 mm 2 m/S 668 mmHg 61%
    09:00 +20°C° 0 mm 2 m/S 669 mmHg 54%
    10:00 +21°C° 0 mm 2 m/S 669 mmHg 47%
    11:00 +23°C° 0 mm 2 m/S 669 mmHg 47%
    12:00 +23°C° 0 mm 2 m/S 669 mmHg 46%
    13:00 +24°C° 0 mm 3 m/S 669 mmHg 45%
    14:00 +24°C° 0,1 mm 3 m/S 668 mmHg 49%
    15:00 +22°C° 0,1 mm 3 m/S 668 mmHg 53%
    16:00 +22°C° 0,1 mm 3 m/S 668 mmHg 56%
    17:00 +20°C° 0,2 mm 2 m/S 668 mmHg 63%
    18:00 +18°C° 0,2 mm 2 m/S 667 mmHg 71%
    19:00 +16°C° 0,2 mm 2 m/S 667 mmHg 78%
    20:00 +16°C° 0 mm 2 m/S 667 mmHg 79%
    21:00 +15°C° 0 mm 2 m/S 667 mmHg 80%
    22:00 +15°C° 0 mm 2 m/S 667 mmHg 81%
    23:00 +14°C° 0 mm 2 m/S 667 mmHg 82%

    27 Mai, Sonntag

    Zeit Temperatur Niederschläge Wind Luftdruck Luftfeuchtigkeit
    00:00 +14°C° 0 mm 2 m/S 667 mmHg 82%
    01:00 +14°C° 0 mm 2 m/S 667 mmHg 82%
    02:00 +13°C° 0 mm 2 m/S 667 mmHg 82%
    03:00 +13°C° 0 mm 2 m/S 666 mmHg 82%
    04:00 +13°C° 0 mm 2 m/S 666 mmHg 82%
    05:00 +15°C° 0 mm 2 m/S 667 mmHg 79%
    06:00 +16°C° 0 mm 2 m/S 667 mmHg 75%
    07:00 +18°C° 0 mm 2 m/S 668 mmHg 71%
    08:00 +19°C° 0 mm 2 m/S 668 mmHg 66%
    09:00 +21°C° 0 mm 2 m/S 668 mmHg 60%
    10:00 +23°C° 0 mm 2 m/S 669 mmHg 54%
    11:00 +23°C° 0,5 mm 2 m/S 669 mmHg 55%
    12:00 +23°C° 0,5 mm 2 m/S 668 mmHg 55%
    13:00 +24°C° 0,5 mm 3 m/S 668 mmHg 56%
    14:00 +22°C° 0,7 mm 3 m/S 668 mmHg 58%
    15:00 +23°C° 0,7 mm 2 m/S 668 mmHg 59%
    16:00 +23°C° 0,7 mm 2 m/S 668 mmHg 61%
    17:00 +20°C° 0,6 mm 2 m/S 667 mmHg 67%
    18:00 +19°C° 0,6 mm 2 m/S 667 mmHg 72%
    19:00 +18°C° 0,6 mm 1 m/S 667 mmHg 78%
    20:00 +16°C° 0,1 mm 1 m/S 667 mmHg 79%
    21:00 +16°C° 0,1 mm 1 m/S 667 mmHg 80%
    22:00 +15°C° 0,1 mm 2 m/S 667 mmHg 81%
    23:00 +15°C° 0 mm 2 m/S 667 mmHg 82%
    Mehr zeigen